Victoria, British Columbia

5:13 AM PDT on August 19, 2017 (GMT -0700)
Victoria International

Weather History for CYYJ - January, 2014

Change the Weather History Date:

Friday, January 31, 2014

  Actual Average Record
Temperature  
Mean Temperature 36 °F -  
Max Temperature 44 °F 47 °F 55 °F (2003)
Min Temperature 28 °F 34 °F 28 °F (2007)
Degree Days  
Heating Degree Days 29    
Moisture  
Dew Point 31 °F    
Average Humidity 81    
Maximum Humidity 100    
Minimum Humidity 60    
Precipitation  
Precipitation 0.00 in 0.13 in - ()
Sea Level Pressure  
Sea Level Pressure 30.09 in    
Wind  
Wind Speed 4 mph ()    
Max Wind Speed 9 mph    
Max Gust Speed -    
Averages and records for this station are not official NWS values.
T = Trace of Precipitation, MM = Missing Value Source: Averaged Metar Reports

Daily Weather History Graph

Daily Weather History Graph

Search for Another Location

Airport or City:

Trip Planner

Search our weather history database for the weather conditions in past years. The results will help you decide how hot, cold, wet, or windy it might be!

Date:

Astronomy

Jan. 31, 2014 Rise Set
Actual Time 7:44 AM PST 5:10 PM PST
Civil Twilight 7:10 AM PST 5:44 PM PST
Nautical Twilight 6:32 AM PST 6:22 PM PST
Astronomical Twilight 5:55 AM PST 6:59 PM PST
Moon 7:48 AM PST (1/31) 6:53 PM PST (1/31)
Length of Visible Light 10h 34m
Length of Day
9h 26m
New Moon, 1% of the Moon is Illuminated
Jan 31
New Moon
Feb 6
First Quarter
Feb 14
Full
Feb 22
Last Quarter
Mar 1
New

Hourly Weather History & Observations

Time (PST) Temp. Windchill Dew Point Humidity Pressure Visibility Wind Dir Wind Speed Gust Speed Precip Events Conditions
12:00 AM 39.2 °F 35.0 °F 28.4 °F 65% 29.97 in 30.0 mi North 5.8 mph - N/A   Overcast
1:00 AM 37.4 °F 32.8 °F 28.4 °F 70% 29.98 in 30.0 mi North 5.8 mph - N/A   Overcast
2:00 AM 37.4 °F 33.8 °F 30.2 °F 75% 29.99 in 30.0 mi NNW 4.6 mph - N/A   Overcast
2:16 AM 35.6 °F 30.7 °F 30.2 °F 81% 30.00 in 30.0 mi NNW 5.8 mph - N/A   Overcast
3:00 AM 37.4 °F 32.8 °F 30.2 °F 75% 30.01 in 30.0 mi NW 5.8 mph - N/A   Overcast
4:00 AM 36 °F - 31 °F 74% 30.02 in 28 mi NNW 5.8 mph - -   Overcast
4:00 AM 35.6 °F 30.7 °F 30.2 °F 81% 30.01 in 30.0 mi NNW 5.8 mph - N/A   Overcast
5:00 AM 35.6 °F 30.7 °F 30.2 °F 81% 30.02 in 30.0 mi NW 5.8 mph - N/A   Mostly Cloudy
6:00 AM 33.8 °F 28.6 °F 32.0 °F 93% 30.04 in 30.0 mi NW 5.8 mph - N/A   Scattered Clouds
7:00 AM 35.6 °F 31.7 °F 33.8 °F 93% 30.05 in 30.0 mi WNW 4.6 mph - N/A   Mostly Cloudy
8:00 AM 35.6 °F 32.8 °F 33.8 °F 93% 30.07 in 30.0 mi WNW 3.5 mph - N/A   Mostly Cloudy
9:00 AM 35.6 °F - 35.6 °F 100% 30.09 in 30.0 mi WNW 2.3 mph - N/A   Partly Cloudy
10:00 AM 40 °F - 32 °F 64% 30.11 in 28 mi West 3.5 mph - -   Scattered Clouds
10:00 AM 39.2 °F 37.0 °F 32.0 °F 75% 30.11 in 30.0 mi West 3.5 mph - N/A   Partly Cloudy
11:00 AM 41.0 °F 39.0 °F 32.0 °F 70% 30.12 in 30.0 mi Variable 3.5 mph - N/A   Partly Cloudy
12:00 PM 42.8 °F - 32.0 °F 66% 30.11 in 30.0 mi NNE 2.3 mph - N/A   Partly Cloudy
1:00 PM 41.0 °F - 30.2 °F 65% 30.12 in 30.0 mi Calm Calm - N/A   Mostly Cloudy
2:00 PM 42.8 °F - 33.8 °F 70% 30.12 in 30.0 mi Calm Calm - N/A   Mostly Cloudy
3:00 PM 41.0 °F 35.2 °F 32.0 °F 70% 30.12 in 30.0 mi NE 9.2 mph - N/A   Mostly Cloudy
4:00 PM 41 °F - 32 °F 60% 30.14 in 28 mi NE 4.6 mph - -   Mostly Cloudy
4:00 PM 41.0 °F 38.0 °F 32.0 °F 70% 30.14 in 30.0 mi NE 4.6 mph - N/A   Mostly Cloudy
5:00 PM 39.2 °F - 32.0 °F 75% 30.14 in 30.0 mi NE 2.3 mph - N/A   Partly Cloudy
5:20 PM 35.6 °F - 32.0 °F 87% 30.14 in 30.0 mi Variable 2.3 mph - N/A   Partly Cloudy
6:00 PM 33.8 °F - 32.0 °F 93% 30.15 in 30.0 mi SW 2.3 mph - N/A   Clear
7:00 PM 33.8 °F 30.8 °F 32.0 °F 93% 30.15 in 30.0 mi WSW 3.5 mph - N/A   Clear
8:00 PM 32.0 °F - 30.2 °F 93% 30.16 in 30.0 mi WNW 2.3 mph - N/A   Clear
9:00 PM 28.4 °F 24.6 °F 28.4 °F 100% 30.16 in 30.0 mi WSW 3.5 mph - N/A   Clear
10:00 PM 31 °F - 31 °F 99% 30.17 in 28 mi WSW 5.8 mph - -   Scattered Clouds
10:00 PM 30.2 °F 24.3 °F 30.2 °F 100% 30.17 in 30.0 mi WSW 5.8 mph - N/A   Partly Cloudy
11:00 PM 28.4 °F 21.2 °F 28.4 °F 100% 30.17 in 30.0 mi WSW 6.9 mph - N/A   Partly Cloudy